| time (UTC) | temp F | wind direction | speed MPH | gust MPH | rain 1hr in | rain 24hr in | rain mn in | humidity % | barometer mb |
| 20260507040032 | 58 | 125 | 0.0 | 3.0 | 0.00 | 0.05 | 0.05 | 95 | 1006.4 |
| 20260507034528 | 58 | 162 | 0.0 | 3.0 | 0.00 | 0.05 | 0.05 | 95 | 1006.4 |
| 20260507033026 | 58 | 179 | 0.0 | 3.0 | 0.00 | 0.05 | 0.05 | 95 | 1006.4 |
| 20260507031525 | 57 | 164 | 1.0 | 3.0 | 0.00 | 0.05 | 0.05 | 95 | 1006.2 |
| 20260507030026 | 57 | 173 | 0.0 | 3.0 | 0.00 | 0.05 | 0.05 | 95 | 1006.1 |
| 20260507024525 | 57 | 166 | 0.0 | 3.0 | 0.00 | 0.05 | 0.05 | 95 | 1006.0 |
| 20260507023024 | 57 | 178 | 1.0 | 3.0 | 0.00 | 0.05 | 0.05 | 95 | 1006.0 |
| 20260507021523 | 57 | 290 | 0.0 | 2.0 | 0.00 | 0.05 | 0.05 | 95 | 1006.1 |
| 20260507020033 | 57 | 164 | 0.0 | 4.0 | 0.00 | 0.05 | 0.05 | 95 | 1006.1 |
| 20260507014523 | 57 | 248 | 1.0 | 3.0 | 0.00 | 0.05 | 0.05 | 95 | 1006.2 |
| 20260507013021 | 57 | 148 | 1.0 | 5.0 | 0.00 | 0.05 | 0.05 | 95 | 1006.5 |
| 20260507011521 | 56 | 221 | 0.0 | 3.0 | 0.00 | 0.05 | 0.05 | 95 | 1006.6 |
| 20260507010026 | 56 | 315 | 0.0 | 3.0 | 0.00 | 0.05 | 0.05 | 95 | 1006.7 |
| 20260507004526 | 56 | 233 | 0.0 | 4.0 | 0.00 | 0.05 | 0.05 | 94 | 1006.6 |
| 20260507003026 | 56 | 306 | 1.0 | 3.0 | 0.01 | 0.05 | 0.05 | 94 | 1006.5 |
| 20260507001524 | 56 | 272 | 1.0 | 7.0 | 0.01 | 0.05 | 0.05 | 94 | 1006.5 |
| 20260507000055 | 56 | 192 | 1.0 | 5.0 | 0.01 | 0.05 | 0.05 | 94 | 1006.5 |
| 20260506234555 | 56 | 235 | 2.0 | 4.0 | 0.01 | 0.05 | 0.05 | 94 | 1006.3 |
| 20260506233053 | 56 | 174 | 1.0 | 5.0 | 0.00 | 0.04 | 0.04 | 93 | 1006.2 |
| 20260506231552 | 57 | 245 | 3.0 | 7.0 | 0.00 | 0.04 | 0.04 | 93 | 1006.4 |
| 20260506230054 | 57 | 295 | 1.0 | 5.0 | 0.00 | 0.04 | 0.04 | 93 | 1006.5 |
| 20260506224601 | 57 | 201 | 0.0 | 3.0 | 0.01 | 0.04 | 0.04 | 93 | 1006.4 |
| 20260506223049 | 58 | 177 | 1.0 | 4.0 | 0.01 | 0.04 | 0.04 | 93 | 1006.5 |
| 20260506221548 | 58 | 312 | 0.0 | 3.0 | 0.01 | 0.04 | 0.04 | 92 | 1006.7 |
| 20260506220048 | 58 | 161 | 1.0 | 5.0 | 0.01 | 0.04 | 0.04 | 92 | 1006.8 |
| 20260506214604 | 59 | 150 | 2.0 | 8.0 | 0.02 | 0.03 | 0.03 | 91 | 1006.9 |
| 20260506213046 | 59 | 237 | 1.0 | 6.0 | 0.02 | 0.03 | 0.03 | 91 | 1007.0 |
| 20260506211546 | 59 | 201 | 1.0 | 6.0 | 0.02 | 0.03 | 0.03 | 90 | 1007.0 |
| 20260506210044 | 60 | 244 | 1.0 | 5.0 | 0.02 | 0.02 | 0.02 | 88 | 1007.1 |
| 20260506204544 | 61 | 229 | 2.0 | 12.0 | 0.01 | 0.01 | 0.01 | 86 | 1007.2 |
| 20260506203046 | 61 | 127 | 2.0 | 11.0 | 0.01 | 0.01 | 0.01 | 84 | 1007.3 |
| 20260506201543 | 62 | 202 | 3.0 | 9.0 | 0.01 | 0.01 | 0.01 | 81 | 1007.3 |
| 20260506200042 | 63 | 263 | 4.0 | 8.0 | 0.00 | 0.00 | 0.00 | 79 | 1007.3 |
| 20260506194556 | 64 | 202 | 2.0 | 6.0 | 0.00 | 0.00 | 0.00 | 74 | 1007.3 |
| 20260506193140 | 65 | 107 | 1.0 | 7.0 | 0.00 | 0.00 | 0.00 | 72 | 1007.5 |
| 20260506191538 | 66 | 245 | 2.0 | 10.0 | 0.00 | 0.00 | 0.00 | 66 | 1007.6 |
| 20260506190042 | 66 | 233 | 1.0 | 6.0 | 0.00 | 0.00 | 0.00 | 64 | 1007.5 |
| 20260506184538 | 67 | 221 | 3.0 | 10.0 | 0.00 | 0.00 | 0.00 | 63 | 1007.6 |
| 20260506183036 | 67 | 196 | 4.0 | 9.0 | 0.00 | 0.00 | 0.00 | 61 | 1007.6 |
| 20260506181539 | 68 | 251 | 2.0 | 7.0 | 0.00 | 0.00 | 0.00 | 61 | 1007.7 |
| 20260506180042 | 69 | 162 | 2.0 | 9.0 | 0.00 | 0.00 | 0.00 | 59 | 1008.0 |
| 20260506174536 | 70 | 241 | 3.0 | 11.0 | 0.00 | 0.00 | 0.00 | 57 | 1008.2 |
| 20260506173034 | 70 | 242 | 3.0 | 10.0 | 0.00 | 0.00 | 0.00 | 58 | 1008.5 |
| 20260506171549 | 69 | 233 | 4.0 | 9.0 | 0.00 | 0.00 | 0.00 | 59 | 1008.2 |
| 20260506170038 | 69 | 177 | 2.0 | 7.0 | 0.00 | 0.00 | 0.00 | 60 | 1008.2 |
| 20260506164534 | 69 | 120 | 1.0 | 8.0 | 0.00 | 0.00 | 0.00 | 59 | 1008.6 |
| 20260506163036 | 69 | 289 | 2.0 | 11.0 | 0.00 | 0.00 | 0.00 | 58 | 1008.8 |
| 20260506161531 | 71 | 161 | 2.0 | 5.0 | 0.00 | 0.00 | 0.00 | 57 | 1009.0 |
| 20260506160032 | 70 | 106 | 2.0 | 7.0 | 0.00 | 0.00 | 0.00 | 58 | 1009.2 |
| 20260506154529 | 70 | 198 | 3.0 | 11.0 | 0.00 | 0.00 | 0.00 | 56 | 1009.4 |
| 20260506153028 | 70 | 272 | 1.0 | 10.0 | 0.00 | 0.00 | 0.00 | 58 | 1009.7 |
| 20260506151534 | 70 | 252 | 3.0 | 10.0 | 0.00 | 0.00 | 0.00 | 57 | 1009.9 |
| 20260506150028 | 70 | 153 | 4.0 | 12.0 | 0.00 | 0.00 | 0.00 | 57 | 1009.8 |
| 20260506144526 | 70 | 329 | 2.0 | 11.0 | 0.00 | 0.00 | 0.00 | 57 | 1009.7 |
| 20260506143024 | 69 | 198 | 4.0 | 9.0 | 0.00 | 0.00 | 0.00 | 58 | 1009.6 |
| 20260506141522 | 69 | 258 | 2.0 | 6.0 | 0.00 | 0.00 | 0.00 | 60 | 1009.6 |
| 20260506140026 | 68 | 193 | 1.0 | 7.0 | 0.00 | 0.00 | 0.00 | 62 | 1009.7 |
| 20260506134520 | 68 | 152 | 1.0 | 9.0 | 0.00 | 0.00 | 0.00 | 62 | 1009.9 |
| 20260506133033 | 66 | 18 | 3.0 | 8.0 | 0.00 | 0.00 | 0.00 | 65 | 1010.3 |
| 20260506131517 | 66 | 267 | 3.0 | 6.0 | 0.00 | 0.00 | 0.00 | 67 | 1010.3 |
| 20260506130011 | 64 | 210 | 3.0 | 6.0 | 0.00 | 0.00 | 0.00 | 70 | 1010.3 |
| 20260506124508 | 63 | 162 | 3.0 | 7.0 | 0.00 | 0.00 | 0.00 | 73 | 1010.5 |
| 20260506123006 | 62 | 242 | 1.0 | 7.0 | 0.00 | 0.00 | 0.00 | 75 | 1010.3 |
| 20260506121504 | 61 | 169 | 3.0 | 8.0 | 0.00 | 0.00 | 0.00 | 77 | 1010.1 |
| 20260506120003 | 60 | 140 | 1.0 | 3.0 | 0.00 | 0.00 | 0.00 | 79 | 1010.7 |
| 20260506114501 | 60 | 81 | 3.0 | 7.0 | 0.00 | 0.00 | 0.00 | 80 | 1010.9 |
| 20260506113102 | 59 | 287 | 1.0 | 5.0 | 0.00 | 0.00 | 0.00 | 82 | 1010.9 |
| 20260506111607 | 59 | 178 | 0.0 | 5.0 | 0.00 | 0.00 | 0.00 | 84 | 1010.7 |
| 20260506110101 | 58 | 202 | 0.0 | 4.0 | 0.00 | 0.00 | 0.00 | 85 | 1010.8 |
| 20260506104601 | 58 | 104 | 0.0 | 3.0 | 0.00 | 0.00 | 0.00 | 85 | 1010.8 |
| 20260506103102 | 58 | 205 | 1.0 | 5.0 | 0.00 | 0.00 | 0.00 | 84 | 1010.7 |
| 20260506101558 | 58 | 173 | 1.0 | 3.0 | 0.00 | 0.00 | 0.00 | 84 | 1010.7 |
| 20260506100101 | 57 | 223 | 2.0 | 7.0 | 0.00 | 0.00 | 0.00 | 84 | 1010.6 |
| 20260506094556 | 58 | 218 | 0.0 | 4.0 | 0.00 | 0.00 | 0.00 | 83 | 1010.5 |
| 20260506093055 | 58 | 247 | 1.0 | 4.0 | 0.00 | 0.00 | 0.00 | 83 | 1010.5 |
| 20260506091600 | 58 | 202 | 1.0 | 5.0 | 0.00 | 0.00 | 0.00 | 83 | 1010.5 |
| 20260506090053 | 58 | 177 | 1.0 | 5.0 | 0.00 | 0.00 | 0.00 | 83 | 1010.6 |
| 20260506084555 | 58 | 155 | 1.0 | 7.0 | 0.00 | 0.00 | 0.00 | 82 | 1010.7 |
| 20260506083052 | 58 | 291 | 1.0 | 5.0 | 0.00 | 0.00 | 0.00 | 80 | 1010.7 |
| 20260506081552 | 59 | 179 | 0.0 | 4.0 | 0.00 | 0.00 | 0.00 | 79 | 1010.7 |
| 20260506073048 | 59 | 211 | 1.0 | 4.0 | 0.00 | 0.00 | 0.00 | 78 | 1010.6 |
| 20260506071546 | 59 | 202 | 1.0 | 6.0 | 0.00 | 0.00 | 0.00 | 77 | 1010.6 |
| 20260506061543 | 59 | 227 | 2.0 | 5.0 | 0.00 | 0.00 | 0.00 | 74 | 1010.5 |
| 20260506050138 | 59 | 289 | 1.0 | 5.0 | 0.00 | 0.00 | 0.00 | 71 | 1010.8 |
| 20260506044537 | 59 | 208 | 1.0 | 6.0 | 0.00 | 0.00 | 0.00 | 70 | 1010.9 |
| 20260506043036 | 59 | 321 | 1.0 | 6.0 | 0.00 | 0.00 | 0.00 | 69 | 1011.1 |
| 20260506041533 | 59 | 236 | 1.0 | 3.0 | 0.00 | 0.00 | 0.00 | 68 | 1011.0 |